"Pseudo-MPEC" for C15HJD2

Created 2019 Oct 16 14:07:07 UT using Find_Orb

Click here for an explanation of pseudo-MPECs

 
 Astrometry: 
     C15HJD2  C2014 09 07hyk@iRmOgfbIj/SyI/_IBH;r-/S;LC)nBt42\amH$pmgJFj3+9VSF51
     C15HJD2  C2014 09 07TN;[VD$98g'fmc(a1,WXM[%=od0Kr?S374C[l7Ml$T3r=;3)!D;NF51
     C15HJD2  C2014 09 07Z@EO_UTWN-DeuAFAXtg7(cF;POtjD.ei]$yk5'xYmMTmngA6$J6gF51
     C15HJD2  C2014 12 22p,=ykCGbj7fi)Uq[4cC110-GhW8U'DLZqWGK@lc`5F`'*$D'jV7wF51
     C15HJD2  C2014 12 22#Y.oh59:I:f;7FaTawW]\abi,\Z)::7/(#wOq=U2TVt/qq/N.kipF51
     C15HJD2  C2014 12 22L2.G_H;vXwV[N+Rk;Fql/h=rpL9vjLSxs8!hi3eEH:++Fr+q?:9\F51
     C15HJD2  C2014 12 22g/b+H_uNlM!^NiMaUM/o2cTX6`)UTBkA+TL-mG\_O7C#'K?\R(+dF51
     C15HJD2  C2016 06 11l_B(yK7TG(uR\H_)Iuhx3fV:Astrometry7uPCW5-IN)+N.B(U%WF51
     C15HJD2  C2016 06 11aa%Fk)v3[/S7#Df-gDBtGJ#Sx1OZ@T8'pq(;$(\g\MjnQn8Mh_wFF51
     C15HJD2  C2017 12 30lv1vVR*H3T@;ot?R0,4^P:R'.DTQ]RQ*(redacted;bZ8nda(s'CF51
     C15HJD2  C2017 12 30B!ctfI.$TIV[1Tjbkv9uXclickVUpJtWRm8v5n90Zr^pAn,SPomcF51
     C15HJD2  C2017 12 30i^?xTCr2P?$LUr??,57j,38l@:Bi.HRQ,KO:ILyA+KP#DI0Y;T?NF51
     C15HJD2  C2017 12 30m1n-S];Ujl;ovVx\=?gBJk@sU4/sV+dd8%nlL/;HeZFHQ?itC4:=F51
     C15HJD2  C2017 12 30in+Sh/MfMeh-34YChereP[bd'd;TiDB*;2R?@V(mCV3ecFTBC^#`F51
     C15HJD2  C2019 08 11H^J=8X-6!k+gC``he_Dx%-yY)B=`(?x-\7?C't43a2s!P5joO4HTF51
     C15HJD2  C2019 08 12vGg%i*frI%_Ux)7s=J4)w63f)onQIjx6JAtj9w.r]qfUj)YXg0nvF51
     C15HJD2  C2019 08 12t)lC4o32`7.4'G2jtobE[=iPG+:,6ji\3$,!jF8xZtlN;svwboM/F51
     C15HJD2  C2019 08 13Tg%:Wp*n)bT^,Q_4%9[CgvI`MFvM1Pnkk%aOMD7')w[4for\p9O+F51
     C15HJD2  C2019 08 13\'_V._X*fD5Z5_vU3tFnWwPk4*c+@fY\uoY*9nNNX$]Ex)9V'C!oF51
     C15HJD2  C2019 08 13C`XNZ8o:Oj2D#q]L5eGi^lAA`Q)SqM9*!sBJgq:orK,x`qxb:6T\F51
     C15HJD2  C2019 08 132:ghD@:K3D-@QNlENa=yno:?HVZ^0pJ%]m#X-(k+.R%_'q+/3c'rF51
     C15HJD2  C2019 08 13W@34Xw*]BPYT7ayvpR!/3snv,K9gwpgq))'`f]\pq6aX6](B_l/XF51
     C15HJD2  C2019 08 23`_ey_boYS\cZw)qYThp;!`y]\8OkJjPhUO'y-QRjnfgx],JG'0dlF51
     C15HJD2  C2019 08 238n7b^B*9q11explanationJscV=1B*cZ^o`/qA?q_fd-#kEe_qPpF51
     C15HJD2  C2019 08 24uI3RfEtJ..c$HrOC7]Wdj5E\4du_:E[Y3^XacfJLDrDs5tyG8C\7F51
     C15HJD2  C2019 08 24Yp!TVpk4Y$L7?5Wiab_OXO#1vpTXa4(cB^3BO!U-MF'c$p$Z2cDmF51
     C15HJD2  C2019 08 24gUi7d!xR);tBN=q)rYW?`tw0R1wptA=;Q,,;-+m7gY)^*21=i*W=F51
     C15HJD2  C2019 08 24'Bp8?@f`^(7D4,RsSCtuVWY:ijX3tiPU1GPA4kYp(#^i/2B,`qb=F51
     C15HJD2  C2019 10 10.15961 22 59 14.38 +38 52 30.6    ~AA4q 21.3 GVNEOCPG96
     C15HJD2  C2019 10 10.16598 22 59 13.80 +38 52 28.1    ~AA4q 20.7 GVNEOCPG96
     C15HJD2  C2019 10 10.17235 22 59 13.30 +38 52 25.5    ~AA4q 20.9 GVNEOCPG96
     C15HJD2  C2019 10 10.17872 22 59 12.79 +38 52 22.9    ~AA4q 20.5 GVNEOCPG96
     C15HJD2  C2019 10 10.26399 22 59 05.98 +38 51 46.9    ~AA6q 22.0 GVNEOCPI52
     C15HJD2  C2019 10 10.26649 22 59 05.77 +38 51 46.1    ~AA6q 21.6 GVNEOCPI52
     C15HJD2  C2019 10 10.26899 22 59 05.56 +38 51 44.9    ~AA6q 22.8 GVNEOCPI52
     C15HJD2  C2019 10 10.27537 22 59 05.05 +38 51 41.9    ~AA6q 21.1 GVNEOCPI52
     C15HJD2  C2019 10 10.36647 22 58 57.84 +38 51 02.7    ~AA9b 21.6 GVNEOCPI52
     C15HJD2  C2019 10 10.36975 22 58 57.59 +38 51 01.2    ~AA9b 20.8 GVNEOCPI52
     C15HJD2  C2019 10 10.37452 22 58 57.20 +38 50 59.2    ~AA9b 21.1 GVNEOCPI52
     C15HJD2  C2019 10 10.37842 22 58 56.90 +38 50 57.3    ~AA9b 21.0 GVNEOCPI52
     C15HJD2  C2019 10 11.10609 22 58 03.46 +38 45 45.9    ~AB37       VNEOCPI52
     C15HJD2  C2019 10 11.10900 22 58 03.28 +38 45 44.5    ~AB37 22.0 GVNEOCPI52
     C15HJD2  C2019 10 11.11191 22 58 02.97 +38 45 43.5    ~AB37       VNEOCPI52
     C15HJD2  C2019 10 16.30091722 52 17.92 +38 02 26.1    ~AG87 20.7 GVNEOCPH01
     C15HJD2  C2019 10 16.30596522 52 17.59 +38 02 22.8    ~AG87 20.6 GVNEOCPH01
     C15HJD2  C2019 10 16.31425722 52 17.09 +38 02 18.3    ~AG87 21.0 GVNEOCPH01
     C15HJD2  C2019 10 16.32134822 52 16.64 +38 02 13.9    ~AG87 21.1 GVNEOCPH01

Station data:
(F51) Pan-STARRS 1, Haleakala  (N20.707235 W156.255910)  US/Hawaii.
   Observers N. Primak, A. Schultz, S. Watters, J. Thiel, T. Goggia. Measurer
   PS1 Science Consortium. 1.8-m Ritchey-Chrétien + CCD.
(G96) Mt. Lemmon Survey  (N32.442754 W110.788720)  US/Arizona.  Observers T.
   A. Pruyne, B. M. Africano, E. J. Christensen, G. A. Farneth, D. C. Fuls,
   A. R. Gibbs, A. D. Grauer, H. Groeller, R. E. Hill, J. A. Johnson, R. A.
   Kowalski, S. M. Larson, G. J. Leonard, R. G. Matheny, R. H. McNaught, D.
   Rankin, R. L. Seaman, F. C. Shelly. 1.5-m reflector + 4K CCD + 10K CCD.
(H01) Magdalena Ridge Observatory, Socorro  (N33.984833 W107.189333)  US/New
   Mexico.  Observers W. H. Ryan, E. V. Ryan. Measurer W. H. Ryan. 2.4-m
   f/8.9 reflector + CCD.
(I52) Steward Observatory, Mt. Lemmon Station  (N32.442547 W110.788920)
   US/Arizona.  Observers T. A. Pruyne, B. M. Africano, E. J. Christensen, G.
   A. Farneth, D. C. Fuls, A. R. Gibbs, A. D. Grauer, H. Groeller, R. E.
   Hill, J. A. Johnson, R. A. Kowalski, S. M. Larson, G. J. Leonard, R. G.
   Matheny, R. H. McNaught, D. Rankin, R. L. Seaman, F. C. Shelly. 1.0-m
   reflector + CCD.

Orbital elements:  C15HJD2
   Perihelion 2020 Apr 16.644424 +/- 0.000295 TT = 15:27:58 (JD 2458956.144424)
Epoch 2019 Oct 16.0 TT = JDT 2458772.5   Earth MOID: 0.5912   Ma: 0.0490
M 287.77209503 +/- 0.00011          (J2000 ecliptic)          AutoNEOCP
n   0.39330301 +/- 1.54e-8          Peri.  165.51180 +/- 0.00013
a   1.84494971 +/- 4.82e-8          Node   298.58060 +/- 0.00006
e   0.1486221 +/- 1.75e-7           Incl.   20.86618 +/- 0.000015
P   2.51/915.31d           H 19.4   G  0.15   U  0.8  
q 1.57074928 +/- 3.33e-7    Q 2.11915015 +/- 3.16e-7
From 47 observations 2014 Sept. 7-2019 Oct. 16; mean residual 0".19
Residuals in arcseconds: 
140907 F51  .31-  .14-    190812 F51  .03-  .01-    191010 I52  .24+  .26-    
140907 F51  .15+  .33-    190813 F51  .08-  .13+    191010 I52  .13+  .01+    
140907 F51  .07-  .02+    190813 F51  .09+  .06+    191010 I52  .01+  .13-    
141222 F51  .13+  .03-    190813 F51  .15-  .11+    191010 I52  .02+  .40-    
141222 F51  .30+  .06+    190813 F51  .03-  .07+    191010 I52  .08+  .22+    
141222 F51  .07+  .16+    190813 F51  .07-  .09+    191010 I52  .16+  .18+    
141222 F51  .09+  .09+    190823 F51  .10+  .13+    191010 I52  .04-  .30+    
160611 F51  .14+  .04-    190823 F51  .04+  .07+    191010 I52  .01+  .14+    
160611 F51  .05-  .06+    190824 F51  .10+  .22-    191011 I52  .08-  .38-    
171230 F51  .02+  .06-    190824 F51  .15+  .01+    191011 I52  .44+  .56-    
171230 F51  .07-  .10+    190824 F51  .02-  .27-    191011 I52  .56-  .34-    
171230 F51  .04-  .13+    190824 F51  .05-  .04-    191016 H01  .23+  .22+    
171230 F51  .02+  .23+    191010 G96  .36+  .18+    191016 H01  .00   .16-    
171230 F51  .07+  .28-    191010 G96  .44-  .25+    191016 H01  .11+  .14+    
190811 F51  .08-  .09+    191010 G96  .29-  .23+    191016 H01  .08-  .15-    
190812 F51  .09-  .04-    191010 G96  .27-  .22+    

Ephemerides (geocentric):
Date (UTC) HH   RA              Dec         delta   r     elong  mag " sig PA
---- -- -- --  -------------   -----------  ------ ------ -----  --- ---- ---
2019 10 16 14  22 52 01.928   +37 59 48.31  .94965 1.7992 135.1 21.6 .037 138
2019 10 16 15  22 51 59.528   +37 59 24.85  .94971 1.7991 135.1 21.6 .037 138
2019 10 16 16  22 51 57.134   +37 59 01.35  .94977 1.7990 135.1 21.6 .037 138
2019 10 16 17  22 51 54.745   +37 58 37.83  .94983 1.7990 135.1 21.6 .037 138
2019 10 16 18  22 51 52.361   +37 58 14.27  .94988 1.7989 135.0 21.6 .037 138
2019 10 16 19  22 51 49.983   +37 57 50.67  .94994 1.7988 135.0 21.6 .037 138
2019 10 16 20  22 51 47.611   +37 57 27.05  .95000 1.7987 135.0 21.6 .037 138
2019 10 16 21  22 51 45.244   +37 57 03.39  .95006 1.7986 135.0 21.6 .037 138
2019 10 16 22  22 51 42.882   +37 56 39.69  .95012 1.7986 135.0 21.6 .037 138
2019 10 16 23  22 51 40.526   +37 56 15.97  .95018 1.7985 134.9 21.6 .037 138
2019 10 17 00  22 51 38.175   +37 55 52.21  .95024 1.7984 134.9 21.6 .037 138
2019 10 17 01  22 51 35.830   +37 55 28.42  .95030 1.7983 134.9 21.6 .037 138
2019 10 17 02  22 51 33.491   +37 55 04.59  .95036 1.7983 134.9 21.6 .037 138
2019 10 17 03  22 51 31.156   +37 54 40.73  .95042 1.7982 134.9 21.6 .037 138
2019 10 17 04  22 51 28.828   +37 54 16.85  .95048 1.7981 134.8 21.6 .037 138
2019 10 17 05  22 51 26.505   +37 53 52.92  .95054 1.7980 134.8 21.6 .037 138
2019 10 17 06  22 51 24.187   +37 53 28.97  .95060 1.7979 134.8 21.6 .037 138
2019 10 17 07  22 51 21.875   +37 53 04.98  .95066 1.7979 134.8 21.6 .037 138
2019 10 17 08  22 51 19.569   +37 52 40.96  .95072 1.7978 134.8 21.6 .037 138
2019 10 17 09  22 51 17.268   +37 52 16.91  .95078 1.7977 134.8 21.6 .037 138
2019 10 17 10  22 51 14.972   +37 51 52.83  .95084 1.7976 134.7 21.6 .037 138
2019 10 17 11  22 51 12.683   +37 51 28.71  .95090 1.7975 134.7 21.6 .037 138
2019 10 17 12  22 51 10.398   +37 51 04.56  .95097 1.7975 134.7 21.7 .037 138
2019 10 17 13  22 51 08.119   +37 50 40.39  .95103 1.7974 134.7 21.7 .037 138
2019 10 17 14  22 51 05.846   +37 50 16.17  .95109 1.7973 134.7 21.7 .037 138
2019 10 17 15  22 51 03.578   +37 49 51.93  .95116 1.7972 134.6 21.7 .036 138
2019 10 17 16  22 51 01.316   +37 49 27.66  .95122 1.7971 134.6 21.7 .036 138
2019 10 17 17  22 50 59.060   +37 49 03.35  .95128 1.7971 134.6 21.7 .036 138
2019 10 17 18  22 50 56.809   +37 48 39.02  .95135 1.7970 134.6 21.7 .036 138
2019 10 17 19  22 50 54.563   +37 48 14.65  .95141 1.7969 134.6 21.7 .036 138
2019 10 17 20  22 50 52.324   +37 47 50.25  .95147 1.7968 134.5 21.7 .036 138
2019 10 17 21  22 50 50.089   +37 47 25.82  .95154 1.7967 134.5 21.7 .036 138
2019 10 17 22  22 50 47.861   +37 47 01.36  .95160 1.7967 134.5 21.7 .036 138
2019 10 17 23  22 50 45.638   +37 46 36.86  .95167 1.7966 134.5 21.7 .036 138
2019 10 18 00  22 50 43.420   +37 46 12.34  .95173 1.7965 134.5 21.7 .036 138
2019 10 18 01  22 50 41.208   +37 45 47.79  .95180 1.7964 134.4 21.7 .036 138
2019 10 18 02  22 50 39.002   +37 45 23.20  .95186 1.7964 134.4 21.7 .036 138
2019 10 18 03  22 50 36.801   +37 44 58.59  .95193 1.7963 134.4 21.7 .036 138
2019 10 18 04  22 50 34.606   +37 44 33.94  .95200 1.7962 134.4 21.7 .036 138
2019 10 18 05  22 50 32.417   +37 44 09.26  .95206 1.7961 134.4 21.7 .036 138
2019 10 18 06  22 50 30.233   +37 43 44.56  .95213 1.7960 134.3 21.7 .036 138
2019 10 18 07  22 50 28.054   +37 43 19.82  .95220 1.7960 134.3 21.7 .036 138
2019 10 18 08  22 50 25.882   +37 42 55.05  .95226 1.7959 134.3 21.7 .036 138
2019 10 18 09  22 50 23.715   +37 42 30.26  .95233 1.7958 134.3 21.7 .036 138
2019 10 18 10  22 50 21.553   +37 42 05.43  .95240 1.7957 134.3 21.7 .036 138
2019 10 18 11  22 50 19.398   +37 41 40.57  .95247 1.7956 134.2 21.7 .036 138
2019 10 18 12  22 50 17.248   +37 41 15.69  .95253 1.7956 134.2 21.7 .036 138
2019 10 18 13  22 50 15.103   +37 40 50.77  .95260 1.7955 134.2 21.7 .036 138